Tiempo cada hora Goiania

Hoy, 30 Noviembre, Lunes

Tiempo Temperatura Precipitaciones Viento Presión Humedad
00:00 +22°C° 0 mm 3 mps 699 mmHg 78%
01:00 +22°C° 0 mm 3 mps 699 mmHg 78%
02:00 +21°C° 0 mm 2 mps 699 mmHg 78%
03:00 +21°C° 0 mm 2 mps 698 mmHg 78%
04:00 +21°C° 0 mm 2 mps 698 mmHg 78%
05:00 +20°C° 0 mm 2 mps 698 mmHg 79%
06:00 +20°C° 0 mm 2 mps 698 mmHg 79%
07:00 +24°C° 0 mm 2 mps 699 mmHg 71%
08:00 +26°C° 0 mm 3 mps 700 mmHg 63%
09:00 +28°C° 0 mm 3 mps 701 mmHg 54%
10:00 +30°C° 0 mm 3 mps 701 mmHg 50%
11:00 +31°C° 0 mm 3 mps 701 mmHg 45%
12:00 +33°C° 0 mm 3 mps 700 mmHg 40%
13:00 +32°C° 0 mm 2 mps 700 mmHg 40%
14:00 +34°C° 0 mm 2 mps 699 mmHg 39%
15:00 +34°C° 0 mm 2 mps 699 mmHg 38%
16:00 +32°C° 0 mm 2 mps 698 mmHg 45%
17:00 +30°C° 0 mm 2 mps 698 mmHg 52%
18:00 +29°C° 0 mm 2 mps 697 mmHg 59%
19:00 +28°C° 0 mm 2 mps 698 mmHg 61%
20:00 +27°C° 0 mm 2 mps 698 mmHg 63%
21:00 +25°C° 0 mm 2 mps 698 mmHg 65%
22:00 +25°C° 0 mm 1 mps 698 mmHg 68%
23:00 +24°C° 0 mm 1 mps 698 mmHg 70%

Mañana, 1 Diciembre, Martes

Tiempo Temperatura Precipitaciones Viento Presión Humedad
00:00 +23°C° 0 mm 1 mps 698 mmHg 73%
01:00 +23°C° 0 mm 1 mps 698 mmHg 74%
02:00 +22°C° 0 mm 1 mps 697 mmHg 75%
03:00 +22°C° 0 mm 1 mps 697 mmHg 76%
04:00 +22°C° 0 mm 1 mps 697 mmHg 76%
05:00 +22°C° 0 mm 1 mps 697 mmHg 77%
06:00 +22°C° 0 mm 1 mps 697 mmHg 78%
07:00 +25°C° 0 mm 2 mps 698 mmHg 68%
08:00 +27°C° 0 mm 2 mps 699 mmHg 59%
09:00 +30°C° 0 mm 2 mps 700 mmHg 50%
10:00 +31°C° 0 mm 2 mps 700 mmHg 46%
11:00 +34°C° 0 mm 2 mps 700 mmHg 42%
12:00 +35°C° 0 mm 2 mps 700 mmHg 38%
13:00 +34°C° 0 mm 1 mps 699 mmHg 39%
14:00 +33°C° 0 mm 1 mps 698 mmHg 41%
15:00 +33°C° 0 mm 1 mps 697 mmHg 42%
16:00 +31°C° 0 mm 1 mps 697 mmHg 47%
17:00 +30°C° 0 mm 1 mps 697 mmHg 52%
18:00 +29°C° 0 mm 1 mps 696 mmHg 57%
19:00 +28°C° 0 mm 1 mps 697 mmHg 58%
20:00 +28°C° 0 mm 1 mps 697 mmHg 59%
21:00 +27°C° 0 mm 1 mps 697 mmHg 60%
22:00 +26°C° 0 mm 1 mps 697 mmHg 62%
23:00 +25°C° 0 mm 1 mps 697 mmHg 65%

Pasado mañana, 2 Diciembre, Miércoles

Tiempo Temperatura Precipitaciones Viento Presión Humedad
00:00 +24°C° 0 mm 1 mps 697 mmHg 67%
01:00 +24°C° 0 mm 1 mps 696 mmHg 68%
02:00 +23°C° 0 mm 1 mps 696 mmHg 70%
03:00 +23°C° 0 mm 1 mps 695 mmHg 72%
04:00 +23°C° 0 mm 1 mps 696 mmHg 73%
05:00 +23°C° 0 mm 1 mps 696 mmHg 74%
06:00 +23°C° 0 mm 2 mps 696 mmHg 75%
07:00 +25°C° 0 mm 2 mps 697 mmHg 66%
08:00 +28°C° 0 mm 2 mps 698 mmHg 57%
09:00 +31°C° 0 mm 2 mps 699 mmHg 49%
10:00 +32°C° 0 mm 2 mps 699 mmHg 46%
11:00 +34°C° 0 mm 2 mps 699 mmHg 42%
12:00 +35°C° 0 mm 2 mps 699 mmHg 39%
13:00 +34°C° 0 mm 2 mps 698 mmHg 42%
14:00 +34°C° 0 mm 2 mps 697 mmHg 44%
15:00 +32°C° 0 mm 2 mps 697 mmHg 47%
16:00 +31°C° 0 mm 2 mps 696 mmHg 51%
17:00 +30°C° 0 mm 1 mps 696 mmHg 54%
18:00 +30°C° 0 mm 1 mps 695 mmHg 58%
19:00 +28°C° 0 mm 1 mps 696 mmHg 61%
20:00 +27°C° 0 mm 1 mps 696 mmHg 63%
21:00 +26°C° 0 mm 2 mps 696 mmHg 66%
22:00 +25°C° 0 mm 1 mps 697 mmHg 67%
23:00 +25°C° 0 mm 1 mps 697 mmHg 68%

3 Diciembre, Jueves

Tiempo Temperatura Precipitaciones Viento Presión Humedad
00:00 +25°C° 0 mm 1 mps 697 mmHg 69%
01:00 +24°C° 0 mm 1 mps 696 mmHg 69%
02:00 +24°C° 0 mm 1 mps 696 mmHg 69%
03:00 +24°C° 0 mm 1 mps 696 mmHg 69%
04:00 +23°C° 0 mm 1 mps 696 mmHg 69%
05:00 +23°C° 0 mm 1 mps 696 mmHg 70%
06:00 +23°C° 0 mm 1 mps 697 mmHg 70%
07:00 +26°C° 0 mm 2 mps 698 mmHg 61%
08:00 +29°C° 0 mm 3 mps 699 mmHg 51%
09:00 +33°C° 0 mm 4 mps 699 mmHg 42%
10:00 +34°C° 0 mm 4 mps 699 mmHg 40%
11:00 +34°C° 0 mm 4 mps 699 mmHg 38%
12:00 +35°C° 0 mm 5 mps 698 mmHg 36%
13:00 +35°C° 0 mm 5 mps 698 mmHg 37%
14:00 +34°C° 0 mm 4 mps 697 mmHg 39%
15:00 +34°C° 0 mm 4 mps 697 mmHg 40%
16:00 +33°C° 0 mm 4 mps 696 mmHg 45%
17:00 +31°C° 0 mm 3 mps 696 mmHg 50%
18:00 +30°C° 0 mm 3 mps 696 mmHg 54%
19:00 +28°C° 0 mm 2 mps 696 mmHg 57%
20:00 +27°C° 0 mm 2 mps 697 mmHg 60%
21:00 +26°C° 0 mm 2 mps 697 mmHg 62%
22:00 +26°C° 0 mm 2 mps 697 mmHg 63%
23:00 +25°C° 0 mm 2 mps 697 mmHg 63%

4 Diciembre, Viernes

Tiempo Temperatura Precipitaciones Viento Presión Humedad
00:00 +25°C° 0 mm 2 mps 697 mmHg 64%
01:00 +25°C° 0 mm 2 mps 697 mmHg 63%
02:00 +25°C° 0 mm 1 mps 697 mmHg 63%
03:00 +25°C° 0 mm 1 mps 696 mmHg 62%
04:00 +25°C° 0 mm 1 mps 697 mmHg 62%
05:00 +25°C° 0 mm 1 mps 697 mmHg 62%
06:00 +25°C° 0 mm 1 mps 698 mmHg 62%
07:00 +27°C° 0 mm 2 mps 698 mmHg 56%
08:00 +29°C° 0 mm 3 mps 699 mmHg 50%
09:00 +33°C° 0 mm 3 mps 700 mmHg 45%
10:00 +34°C° 0 mm 3 mps 700 mmHg 43%
11:00 +34°C° 0 mm 3 mps 700 mmHg 40%
12:00 +35°C° 0 mm 3 mps 699 mmHg 38%
13:00 +35°C° 0 mm 3 mps 699 mmHg 39%
14:00 +35°C° 0 mm 3 mps 698 mmHg 40%
15:00 +35°C° 0 mm 2 mps 697 mmHg 40%
16:00 +34°C° 0 mm 2 mps 697 mmHg 46%
17:00 +31°C° 0 mm 2 mps 697 mmHg 51%
18:00 +30°C° 0 mm 1 mps 697 mmHg 57%
19:00 +29°C° 0.2 mm 1 mps 697 mmHg 61%
20:00 +27°C° 0.2 mm 1 mps 697 mmHg 65%
21:00 +26°C° 0.2 mm 1 mps 698 mmHg 68%
22:00 +25°C° 0.4 mm 1 mps 698 mmHg 72%
23:00 +25°C° 0.4 mm 2 mps 698 mmHg 75%

5 Diciembre, Sábado

Tiempo Temperatura Precipitaciones Viento Presión Humedad
00:00 +24°C° 0.4 mm 2 mps 698 mmHg 79%
01:00 +24°C° 0.7 mm 2 mps 698 mmHg 81%
02:00 +23°C° 0.7 mm 2 mps 697 mmHg 84%
03:00 +23°C° 0.7 mm 1 mps 697 mmHg 87%
04:00 +23°C° 0.3 mm 1 mps 698 mmHg 87%
05:00 +23°C° 0.3 mm 1 mps 698 mmHg 88%
06:00 +23°C° 0.3 mm 1 mps 698 mmHg 88%
07:00 +24°C° 0.1 mm 1 mps 699 mmHg 85%
08:00 +25°C° 0.1 mm 1 mps 700 mmHg 81%
09:00 +26°C° 0.1 mm 2 mps 700 mmHg 77%
10:00 +27°C° 0.3 mm 1 mps 700 mmHg 71%
11:00 +29°C° 0.3 mm 1 mps 700 mmHg 65%
12:00 +30°C° 0.3 mm 1 mps 700 mmHg 58%
13:00 +31°C° 0.1 mm 1 mps 699 mmHg 55%
14:00 +32°C° 0.1 mm 2 mps 699 mmHg 51%
15:00 +34°C° 0.1 mm 2 mps 698 mmHg 48%
16:00 +31°C° 0.2 mm 2 mps 698 mmHg 54%
17:00 +30°C° 0.2 mm 2 mps 697 mmHg 60%
18:00 +28°C° 0.2 mm 2 mps 697 mmHg 66%
19:00 +27°C° 0.5 mm 2 mps 697 mmHg 72%
20:00 +26°C° 0.5 mm 2 mps 698 mmHg 77%
21:00 +24°C° 0.5 mm 3 mps 698 mmHg 82%
22:00 +24°C° 0.1 mm 2 mps 698 mmHg 82%
23:00 +23°C° 0.1 mm 1 mps 698 mmHg 82%
Mostrar más

Necesitamos Su Consentimiento

Meteoprog y nuestros Proveedores de Servicios pueden almacenar y acceder a sus datos personales como cookies, identificadores de dispositivo u otras tecnologías similares de su dispositivo y procesar dichos datos para personalizar contenido y anuncios, además de ofrecer funciones de redes sociales y analizar el tráfico.

  • Almacenar y/o acceder a información en su dispositivo

    Se puede almacenar o acceder a cookies, identificadores de dispositivo u otra información de su dispositivo para los fines anteriormente indicados.

  • Anuncios y contenido personalizados, medición de anuncios y contenido, percepciones del público, y desarrollo de productos

    Los anuncios y el contenido pueden personalizarse en base a su perfil. Se pueden añadir más datos para personalizar mejor los anuncios y contenidos. Se puede medir el rendimiento de los anuncios y contenidos. Se puede obtener la percepción sobre el público que ha visto los anuncios y contenidos. Dichos datos pueden usarse para desarrollar o mejorar la experiencia del usuario, sistemas y software.

Al hacer clic en ‘Estoy De Acuerdo’ usted permitirá el uso de las cookies, identificadores de dispositivo, balizas web u otras tecnologías similares indicadas. Su configuración puede cambiarse desde el navegador de su dispositivo.

Para ciertos fines, los intereses legítimos pueden ser considerados por encima del consentimiento. Puede leer más sobre ello en nuestra Política de Privacidad y Cookies.